ASX714 CYUL-KLGA

Flight info

Callsign ASX714
Flight time 1h 5m
Altitude 34000
Route FAWNS DCT BUGSY DCT ALB NOBBI5
Aircraft A320/M-SDE3FGHIRWY/LB1

Departure

Time 2026-05-04 11:05
Airport Montreal / Pierre Elliott Trudeau International Airport (CYUL)

Arrival

Time 2026-05-04 12:11
Airport LaGuardia Airport (KLGA)
Time Latitude Longitude Altitude Speed Heading
2026-05-04 10:44 45.45927 -73.75137 110 ft 0 kts 180°
2026-05-04 10:54 45.45928 -73.75137 111 ft 1 kts 180°
2026-05-04 10:56 45.46004 -73.75183 112 ft 1 kts 86°
2026-05-04 10:58 45.46004 -73.75182 112 ft 1 kts 86°
2026-05-04 10:58 45.46008 -73.75106 114 ft 12 kts 85°
2026-05-04 10:58 45.46003 -73.75001 115 ft 10 kts 99°
2026-05-04 10:58 45.45988 -73.74900 114 ft 12 kts 93°
2026-05-04 10:59 45.45982 -73.74782 113 ft 14 kts 110°
2026-05-04 10:59 45.45949 -73.74656 116 ft 14 kts 86°
2026-05-04 10:59 45.45972 -73.74537 114 ft 11 kts 70°
2026-05-04 10:59 45.46004 -73.74409 115 ft 19 kts 70°
2026-05-04 11:00 45.46091 -73.74253 115 ft 21 kts 46°
2026-05-04 11:01 45.46982 -73.72949 115 ft 35 kts 43°
2026-05-04 11:02 45.47161 -73.72715 117 ft 35 kts 42°
2026-05-04 11:02 45.47345 -73.72477 112 ft 36 kts 45°
2026-05-04 11:05 45.40365 -73.78838 3095 ft 234 kts 211°
2026-05-04 11:06 45.38897 -73.79932 3887 ft 241 kts 212°
2026-05-04 11:06 45.37405 -73.81040 4820 ft 243 kts 212°
2026-05-04 11:06 45.35899 -73.82153 5747 ft 245 kts 213°
2026-05-04 11:06 45.34377 -73.83275 6604 ft 248 kts 213°
2026-05-04 11:08 45.22796 -73.91860 10806 ft 323 kts 213°
2026-05-04 11:10 45.07538 -74.03045 14634 ft 368 kts 213°
2026-05-04 11:12 44.89205 -74.07452 18391 ft 421 kts 181°
2026-05-04 11:12 44.86276 -74.07048 18844 ft 424 kts 181°
2026-05-04 11:12 44.83325 -74.06643 19278 ft 427 kts 181°
2026-05-04 11:12 44.80390 -74.06248 19728 ft 430 kts 181°
2026-05-04 11:13 44.77398 -74.05853 20157 ft 433 kts 181°
2026-05-04 11:13 44.74388 -74.05461 20567 ft 436 kts 181°
2026-05-04 11:13 44.71355 -74.05067 20976 ft 439 kts 181°
2026-05-04 11:13 44.68306 -74.04667 21378 ft 441 kts 181°
2026-05-04 11:14 44.65232 -74.04268 21751 ft 444 kts 182°
2026-05-04 11:14 44.62144 -74.03875 22128 ft 446 kts 181°
2026-05-04 11:14 44.59043 -74.03479 22480 ft 448 kts 181°
2026-05-04 11:16 44.36898 -74.00604 24589 ft 463 kts 181°
2026-05-04 11:16 44.33682 -74.00193 24868 ft 465 kts 181°
2026-05-04 11:16 44.30453 -73.99781 25119 ft 466 kts 181°
2026-05-04 11:17 44.27217 -73.99366 25366 ft 468 kts 181°
2026-05-04 11:17 44.24003 -73.98959 25592 ft 469 kts 181°
2026-05-04 11:19 44.01227 -73.96046 27721 ft 466 kts 180°
2026-05-04 11:19 43.98001 -73.95639 28075 ft 465 kts 181°
2026-05-04 11:19 43.94781 -73.95239 28434 ft 464 kts 181°
2026-05-04 11:19 43.91565 -73.94833 28830 ft 462 kts 181°
2026-05-04 11:20 43.88368 -73.94425 29201 ft 461 kts 181°
2026-05-04 11:20 43.85179 -73.94017 29509 ft 460 kts 181°
2026-05-04 11:20 43.82034 -73.93620 29858 ft 459 kts 181°
2026-05-04 11:20 43.78857 -73.93222 30167 ft 459 kts 181°
2026-05-04 11:22 43.56566 -73.90421 31996 ft 460 kts 180°
2026-05-04 11:22 43.53371 -73.90022 32287 ft 460 kts 180°
2026-05-04 11:23 43.50218 -73.89634 32550 ft 460 kts 180°
2026-05-04 11:23 43.47026 -73.89237 32802 ft 461 kts 180°
2026-05-04 11:24 43.27841 -73.86852 33883 ft 467 kts 180°
2026-05-04 11:25 43.24606 -73.86455 33887 ft 467 kts 180°
2026-05-04 11:25 43.18129 -73.85650 33892 ft 467 kts 180°
2026-05-04 11:27 42.89064 -73.82067 33907 ft 466 kts 180°
2026-05-04 11:28 42.82608 -73.81418 33907 ft 460 kts 187°
2026-05-04 11:28 42.76463 -73.83034 33913 ft 444 kts 207°
2026-05-04 11:29 42.71267 -73.87233 33916 ft 430 kts 225°
2026-05-04 11:29 42.67329 -73.93207 33896 ft 423 kts 236°
2026-05-04 11:33 42.41781 -74.37178 33913 ft 426 kts 235°
2026-05-04 11:33 42.38091 -74.43472 33908 ft 427 kts 235°
2026-05-04 11:34 42.34412 -74.49741 33908 ft 428 kts 235°
2026-05-04 11:34 42.30707 -74.56040 33920 ft 428 kts 235°
2026-05-04 11:35 42.26994 -74.62335 33928 ft 428 kts 235°
2026-05-04 11:35 42.23270 -74.68633 33942 ft 428 kts 235°
2026-05-04 11:36 42.19578 -74.74878 33925 ft 428 kts 235°
2026-05-04 11:36 42.15866 -74.81146 33945 ft 427 kts 235°
2026-05-04 11:37 42.12152 -74.87398 33950 ft 427 kts 235°
2026-05-04 11:37 42.08424 -74.93645 33959 ft 427 kts 235°
2026-05-04 11:38 42.04698 -74.99879 33964 ft 427 kts 235°
2026-05-04 11:38 42.00983 -75.06105 33962 ft 426 kts 235°
2026-05-04 11:39 41.97278 -75.12276 33954 ft 426 kts 235°
2026-05-04 11:41 41.84209 -75.33991 33958 ft 427 kts 235°
2026-05-04 11:41 41.80465 -75.40183 33954 ft 427 kts 235°
2026-05-04 11:42 41.76713 -75.46375 33952 ft 428 kts 235°
2026-05-04 11:42 41.72949 -75.52571 33947 ft 429 kts 235°
2026-05-04 11:43 41.69036 -75.58629 33936 ft 435 kts 224°
2026-05-04 11:43 41.66472 -75.60832 33941 ft 444 kts 208°
2026-05-04 11:43 41.63476 -75.61989 33943 ft 455 kts 193°
2026-05-04 11:44 41.57214 -75.62994 33952 ft 457 kts 191°
2026-05-04 11:44 41.50880 -75.63924 33421 ft 456 kts 191°
2026-05-04 11:44 41.47718 -75.64389 32414 ft 458 kts 191°
2026-05-04 11:45 41.44540 -75.64868 31415 ft 460 kts 191°
2026-05-04 11:45 41.42433 -75.65191 30763 ft 461 kts 191°
2026-05-04 11:45 41.39240 -75.65684 29739 ft 463 kts 191°
2026-05-04 11:45 41.36036 -75.66177 28558 ft 465 kts 191°
2026-05-04 11:46 41.32829 -75.66664 27349 ft 467 kts 191°
2026-05-04 11:46 41.29590 -75.67155 26101 ft 469 kts 191°
2026-05-04 11:46 41.26331 -75.67649 24851 ft 471 kts 191°
2026-05-04 11:46 41.23060 -75.68144 23726 ft 472 kts 191°
2026-05-04 11:47 41.19858 -75.68627 22799 ft 465 kts 191°
2026-05-04 11:47 41.16662 -75.69107 21923 ft 459 kts 191°
2026-05-04 11:47 41.13505 -75.69584 21088 ft 453 kts 191°
2026-05-04 11:47 41.10394 -75.70053 20295 ft 447 kts 191°
2026-05-04 11:48 41.07318 -75.70516 19519 ft 442 kts 191°
2026-05-04 11:48 41.04278 -75.70974 18788 ft 437 kts 191°
2026-05-04 11:48 41.01269 -75.71426 18056 ft 433 kts 191°
2026-05-04 11:48 40.98290 -75.71877 17289 ft 428 kts 191°
2026-05-04 11:49 40.95343 -75.72326 16555 ft 424 kts 191°
2026-05-04 11:49 40.92427 -75.72770 15862 ft 420 kts 191°
2026-05-04 11:49 40.89537 -75.73138 15194 ft 418 kts 186°
2026-05-04 11:49 40.86634 -75.72831 14551 ft 420 kts 172°
2026-05-04 11:50 40.83847 -75.71689 13936 ft 421 kts 159°
2026-05-04 11:50 40.81341 -75.69783 13279 ft 422 kts 146°
2026-05-04 11:50 40.79190 -75.67167 12602 ft 421 kts 133°
2026-05-04 11:50 40.77523 -75.63988 11921 ft 420 kts 120°
2026-05-04 11:51 40.76417 -75.60437 11226 ft 418 kts 109°
2026-05-04 11:51 40.75451 -75.56828 10690 ft 416 kts 112°
2026-05-04 11:51 40.74338 -75.53305 10495 ft 416 kts 115°
2026-05-04 11:51 40.73147 -75.49829 10506 ft 416 kts 116°
2026-05-04 11:52 40.71983 -75.46358 10503 ft 405 kts 115°
2026-05-04 11:52 40.70928 -75.43026 10508 ft 383 kts 114°
2026-05-04 11:52 40.69956 -75.39860 10506 ft 362 kts 114°
2026-05-04 11:52 40.69043 -75.36856 10508 ft 344 kts 114°
2026-05-04 11:53 40.68174 -75.34001 10507 ft 328 kts 114°
2026-05-04 11:53 40.67348 -75.31312 10507 ft 313 kts 115°
2026-05-04 11:53 40.66526 -75.28673 10298 ft 310 kts 115°
2026-05-04 11:53 40.65709 -75.26064 10061 ft 307 kts 115°
2026-05-04 11:55 40.60027 -75.08088 9071 ft 301 kts 115°
2026-05-04 11:55 40.59236 -75.05581 8940 ft 300 kts 115°
2026-05-04 11:56 40.58437 -75.03052 8803 ft 298 kts 116°
2026-05-04 11:56 40.57638 -75.00536 8664 ft 297 kts 116°
2026-05-04 11:56 40.56844 -74.98032 8525 ft 296 kts 116°
2026-05-04 11:56 40.56054 -74.95533 8322 ft 294 kts 116°
2026-05-04 11:57 40.55269 -74.93047 7937 ft 293 kts 116°
2026-05-04 11:57 40.54487 -74.90585 7555 ft 291 kts 116°
2026-05-04 11:57 40.53706 -74.88138 7180 ft 289 kts 116°
2026-05-04 11:57 40.52931 -74.85707 6804 ft 288 kts 116°
2026-05-04 11:58 40.52159 -74.83287 6425 ft 286 kts 117°
2026-05-04 11:58 40.51391 -74.80878 6031 ft 285 kts 117°
2026-05-04 11:58 40.50630 -74.78490 5653 ft 282 kts 116°
2026-05-04 11:58 40.49874 -74.76126 5284 ft 279 kts 117°
2026-05-04 11:59 40.49123 -74.73783 4911 ft 277 kts 117°
2026-05-04 11:59 40.48375 -74.71458 4446 ft 277 kts 117°
2026-05-04 11:59 40.47624 -74.69131 3984 ft 277 kts 117°
2026-05-04 11:59 40.46877 -74.66804 3577 ft 275 kts 117°
2026-05-04 12:00 40.46146 -74.64525 3166 ft 274 kts 117°
2026-05-04 12:00 40.45414 -74.62242 2998 ft 270 kts 117°
2026-05-04 12:00 40.44681 -74.59957 3014 ft 272 kts 117°
2026-05-04 12:00 40.44053 -74.57598 3020 ft 275 kts 108°
2026-05-04 12:01 40.43715 -74.55115 3019 ft 278 kts 98°
2026-05-04 12:01 40.43685 -74.52567 3004 ft 280 kts 89°
2026-05-04 12:02 40.47190 -74.37789 3024 ft 283 kts 72°
2026-05-04 12:03 40.47829 -74.35406 3018 ft 283 kts 72°
2026-05-04 12:03 40.48484 -74.32963 3027 ft 284 kts 72°
2026-05-04 12:03 40.49134 -74.30541 3032 ft 284 kts 71°
2026-05-04 12:03 40.49788 -74.28092 3029 ft 283 kts 72°
2026-05-04 12:04 40.50439 -74.25650 3021 ft 284 kts 72°
2026-05-04 12:04 40.51092 -74.23202 3030 ft 284 kts 72°
2026-05-04 12:04 40.51746 -74.20753 3031 ft 284 kts 71°
2026-05-04 12:04 40.52402 -74.18297 3029 ft 284 kts 72°
2026-05-04 12:05 40.53057 -74.15842 3021 ft 285 kts 72°
2026-05-04 12:05 40.53713 -74.13381 3029 ft 284 kts 72°
2026-05-04 12:05 40.54366 -74.10933 3029 ft 284 kts 71°
2026-05-04 12:05 40.55056 -74.08502 3028 ft 284 kts 65°
2026-05-04 12:06 40.56123 -74.06313 3033 ft 284 kts 48°
2026-05-04 12:06 40.57540 -74.04512 3037 ft 284 kts 38°
2026-05-04 12:06 40.59126 -74.03007 3033 ft 273 kts 30°
2026-05-04 12:06 40.60638 -74.01788 3032 ft 244 kts 28°
2026-05-04 12:07 40.62030 -74.00667 3035 ft 227 kts 28°
2026-05-04 12:07 40.63350 -73.99588 3030 ft 221 kts 28°
2026-05-04 12:07 40.64621 -73.98543 3037 ft 205 kts 28°
2026-05-04 12:07 40.65800 -73.97572 2784 ft 196 kts 28°
2026-05-04 12:08 40.66933 -73.96641 2503 ft 185 kts 28°
2026-05-04 12:08 40.67997 -73.95764 2279 ft 175 kts 27°
2026-05-04 12:08 40.69016 -73.94926 2024 ft 169 kts 27°
2026-05-04 12:08 40.70007 -73.94110 1778 ft 167 kts 26°
2026-05-04 12:09 40.70988 -73.93303 1541 ft 165 kts 27°
2026-05-04 12:09 40.71941 -73.92517 1315 ft 163 kts 28°
2026-05-04 12:09 40.72894 -73.91732 1048 ft 159 kts 28°
2026-05-04 12:09 40.73829 -73.90967 794 ft 158 kts 29°
2026-05-04 12:10 40.74750 -73.90215 567 ft 155 kts 33°
2026-05-04 12:10 40.75656 -73.89432 378 ft 157 kts 31°
2026-05-04 12:10 40.76584 -73.88686 149 ft 158 kts 32°
2026-05-04 12:10 40.77487 -73.87951 27 ft 139 kts 29°
2026-05-04 12:11 40.78086 -73.87446 12 ft 59 kts 30°
2026-05-04 12:11 40.78253 -73.87271 15 ft 11 kts 90°
2026-05-04 12:11 40.78216 -73.87220 14 ft 8 kts 153°
2026-05-04 12:11 40.78168 -73.87224 15 ft 7 kts 205°
2026-05-04 12:12 40.78126 -73.87257 16 ft 8 kts 212°
2026-05-04 12:12 40.78072 -73.87303 15 ft 10 kts 213°
2026-05-04 12:12 40.78004 -73.87361 14 ft 12 kts 213°
2026-05-04 12:12 40.77935 -73.87422 16 ft 11 kts 214°
2026-05-04 12:13 40.77865 -73.87462 18 ft 11 kts 165°
2026-05-04 12:14 40.77618 -73.87327 19 ft 0 kts 185°
2026-05-04 12:15 40.77617 -73.87327 19 ft 0 kts 185°